Ontario, OR

1:37 AM MST on January 22, 2017 (GMT -0700)
Ontario Municipal

Weather History for KONO - September, 2013

Change the Weather History Date:

Saturday, September 28, 2013

  Actual Average Record
Temperature  
Mean Temperature 61 °F 58 °F  
Max Temperature 72 °F 76 °F 90 °F (2003)
Min Temperature 50 °F 40 °F 28 °F (1999)
Degree Days  
Heating Degree Days 4 7  
Month to date heating degree days 73 101  
Since 1 July heating degree days 73 117  
Cooling Degree Days 0 0  
Month to date cooling degree days 127 56  
Year to date cooling degree days 1299 849  
Growing Degree Days 10 (Base 50)    
Moisture  
Dew Point 45 °F    
Average Humidity 58    
Maximum Humidity 83    
Minimum Humidity 33    
Precipitation  
Precipitation T in 0.01 in 0.35 in (1962)
Month to date precipitation 0.40 0.37  
Year to date precipitation 3.01 6.61  
Sea Level Pressure  
Sea Level Pressure 29.96 in    
Wind  
Wind Speed 5 mph (East)    
Max Wind Speed 16 mph    
Max Gust Speed 22 mph    
Visibility 10 miles    
Events Rain    
T = Trace of Precipitation, MM = Missing Value Source: NWS Daily Summary

Daily Weather History Graph

Daily Weather History Graph

Search for Another Location

Airport or City:

Trip Planner

Search our weather history database for the weather conditions in past years. The results will help you decide how hot, cold, wet, or windy it might be!

Date:

Astronomy

Sep. 28, 2013 Rise Set
Actual Time 7:42 AM MDT 7:33 PM MDT
Civil Twilight 7:13 AM MDT 8:02 PM MDT
Nautical Twilight 6:40 AM MDT 8:35 PM MDT
Astronomical Twilight 6:06 AM MDT 9:09 PM MDT
Moon 1:23 AM MDT (9/28) 4:05 PM MDT (9/28)
Length of Visible Light 12h 48m
Length of Day
11h 51m
Waning Crescent, 35% of the Moon is Illuminated
Sep 28
Waning Crescent
Oct 4
New
Oct 11
First Quarter
Oct 18
Full
Oct 26
Last Quarter

Hourly Weather History & Observations

Time (MDT) Temp. Dew Point Humidity Pressure Visibility Wind Dir Wind Speed Gust Speed Precip Events Conditions
12:53 AM 52.0 °F 43.0 °F 71% 30.07 in 10.0 mi NNE 3.5 mph - N/A   Overcast
1:53 AM 52.0 °F 44.1 °F 74% 30.07 in 10.0 mi North 4.6 mph - N/A   Overcast
2:53 AM 51.1 °F 44.1 °F 77% 30.07 in 10.0 mi North 4.6 mph - 0.00 in   Overcast
3:53 AM 51.1 °F 45.0 °F 80% 30.06 in 10.0 mi North 5.8 mph - N/A   Overcast
4:53 AM 51.1 °F 45.0 °F 80% 30.05 in 10.0 mi North 3.5 mph - N/A   Overcast
5:53 AM 51.1 °F 46.0 °F 83% 30.05 in 10.0 mi Calm Calm - 0.00 in   Overcast
6:53 AM 51.1 °F 46.0 °F 83% 30.04 in 10.0 mi Calm Calm - N/A   Overcast
7:53 AM 51.1 °F 46.0 °F 83% 30.06 in 10.0 mi NNE 3.5 mph - N/A   Overcast
8:53 AM 51.1 °F 46.0 °F 83% 30.06 in 10.0 mi NNE 3.5 mph - N/A   Overcast
9:53 AM 53.1 °F 46.0 °F 77% 30.05 in 10.0 mi Calm Calm - 0.00 in   Overcast
10:53 AM 57.0 °F 44.1 °F 62% 30.05 in 10.0 mi Calm Calm - N/A   Overcast
11:53 AM 60.1 °F 42.1 °F 51% 30.03 in 10.0 mi SSE 5.8 mph - N/A   Overcast
12:53 PM 63.0 °F 42.1 °F 46% 30.00 in 10.0 mi Variable 3.5 mph - N/A   Partly Cloudy
1:53 PM 66.0 °F 41.0 °F 40% 29.97 in 10.0 mi SE 10.4 mph 17.3 mph N/A   Mostly Cloudy
2:53 PM 69.1 °F 41.0 °F 36% 29.93 in 10.0 mi SE 10.4 mph - N/A   Mostly Cloudy
3:53 PM 69.1 °F 39.9 °F 35% 29.91 in 10.0 mi SE 6.9 mph - N/A   Overcast
4:53 PM 70.0 °F 42.1 °F 36% 29.86 in 10.0 mi SSE 12.7 mph - 0.00 in   Mostly Cloudy
5:53 PM 66.0 °F 48.0 °F 52% 29.89 in 10.0 mi SSW 6.9 mph - 0.00 in Rain Light Rain
6:53 PM 63.0 °F 50.0 °F 63% 29.86 in 10.0 mi ESE 4.6 mph - 0.00 in   Mostly Cloudy
7:53 PM 62.1 °F 50.0 °F 65% 29.83 in 10.0 mi SE 5.8 mph - N/A   Overcast
8:53 PM 62.1 °F 48.0 °F 60% 29.81 in 10.0 mi ESE 3.5 mph - N/A   Overcast
9:53 PM 63.0 °F 46.0 °F 54% 29.80 in 10.0 mi SE 8.1 mph - 0.00 in   Overcast
10:53 PM 61.0 °F 46.0 °F 58% 29.78 in 10.0 mi SSE 3.5 mph - N/A   Scattered Clouds
11:53 PM 60.1 °F 45.0 °F 57% 29.75 in 10.0 mi SE 6.9 mph - N/A   Partly Cloudy